QPF
0.03 0.03 0.04 0.05 0.05 0.05 0.05 0.06 0.08 0.09 0.10 0.12 0.16 0.18 0.19 0.20 0.25 0.23 0.25 0.30 0.28 0.25 0.22 0.20 0.19 0.16 0.14 0.13 0.12 0.12 0.13 0.13 0.12 0.10 0.09 0.07 0.04 0.03
0.03 0.03 0.03 0.03 0.04 0.05 0.05 0.06 0.08 0.09 0.10 0.12 0.15 0.19 0.19 0.21 0.27 0.25 0.27 0.29 0.26 0.21 0.17 0.15 0.15 0.14 0.14 0.12 0.12 0.11 0.10 0.08 0.06 0.05 0.04 0.04 0.03 0.02
0.01 0.01 0.01 0.01 0.03 0.03 0.03 0.03 0.05 0.07 0.10 0.14 0.19 0.20 0.20 0.21 0.24 0.22 0.21 0.21 0.20 0.18 0.14 0.14 0.14 0.13 0.11 0.10 0.09 0.07 0.06 0.05 0.03 0.02 0.02 0.02 0.02 0.01
0.01 0.01 0.01 0.01 0.02 0.02 0.03 0.04 0.05 0.07 0.10 0.14 0.19 0.21 0.21 0.20 0.19 0.18 0.17 0.16 0.16 0.17 0.15 0.15 0.14 0.12 0.10 0.09 0.07 0.06 0.04 0.04 0.03 0.02 0.01 0.01 0.01 0.01
0.01 0.01 0.01 0.01 0.02 0.03 0.03 0.04 0.05 0.07 0.09 0.13 0.18 0.20 0.21 0.19 0.16 0.14 0.11 0.11 0.11 0.13 0.12 0.13 0.13 0.12 0.11 0.08 0.06 0.05 0.04 0.03 0.02 0.02 0.01 0.01 0.00 0.00
0.01 0.01 0.01 0.01 0.02 0.03 0.04 0.05 0.06 0.06 0.08 0.11 0.15 0.17 0.20 0.19 0.16 0.13 0.12 0.11 0.10 0.08 0.07 0.06 0.06 0.07 0.07 0.06 0.05 0.04 0.03 0.02 0.02 0.01 0.01 0.00 0.00 0.00
0.01 0.01 0.01 0.02 0.02 0.04 0.04 0.06 0.06 0.08 0.09 0.09 0.11 0.12 0.14 0.15 0.13 0.11 0.10 0.10 0.09 0.07 0.06 0.04 0.03 0.02 0.02 0.02 0.02 0.01 0.01 0.01 0.00 0.00 0.00 0.00 0.00 0.00
0.01 0.01 0.01 0.02 0.04 0.06 0.07 0.06 0.07 0.07 0.07 0.07 0.07 0.07 0.07 0.08 0.08 0.08 0.08 0.08 0.08 0.07 0.05 0.04 0.02 0.02 0.02 0.02 0.01 0.01 0.00 0.00 0.00 0.00 0.00 0.00 0.00 0.00
0.02 0.03 0.02 0.03 0.05 0.06 0.07 0.07 0.07 0.07 0.07 0.06 0.05 0.05 0.05 0.07 0.07 0.07 0.06 0.05 0.05 0.04 0.04 0.03 0.03 0.03 0.02 0.01 0.01 0.01 0.00 0.00 0.00 0.00 0.00 0.00 0.00 0.00
0.03 0.03 0.04 0.05 0.05 0.04 0.04 0.06 0.07 0.07 0.07 0.06 0.06 0.06 0.06 0.06 0.06 0.05 0.04 0.03 0.03 0.02 0.02 0.02 0.02 0.02 0.01 0.01 0.01 0.00 0.00 0.00 0.00 0.00 0.00 0.00 0.00 0.00
0.03 0.03 0.03 0.03 0.05 0.07 0.06 0.06 0.06 0.06 0.07 0.07 0.06 0.06 0.05 0.04 0.03 0.03 0.02 0.02 0.03 0.03 0.01 0.01 0.02 0.01 0.01 0.01 0.00 0.00 0.00 0.00 0.00 0.00 0.00 0.00 0.00 0.00
0.03 0.03 0.03 0.03 0.03 0.04 0.04 0.04 0.04 0.04 0.04 0.04 0.03 0.03 0.03 0.02 0.02 0.02 0.02 0.03 0.03 0.03 0.02 0.01 0.01 0.01 0.01 0.00 0.00 0.00 0.00 0.00 0.00 0.00 0.00 0.00 0.00 0.00
0.02 0.03 0.04 0.04 0.03 0.02 0.02 0.03 0.04 0.04 0.04 0.04 0.03 0.03 0.03 0.02 0.02 0.02 0.03 0.03 0.02 0.02 0.01 0.01 0.01 0.01 0.01 0.01 0.00 0.00 0.00 0.00 0.00 0.00 0.00 0.00 0.00 0.00
0.03 0.02 0.03 0.03 0.03 0.02 0.02 0.02 0.02 0.02 0.03 0.03 0.02 0.02 0.02 0.02 0.02 0.01 0.01 0.01 0.01 0.01 0.01 0.01 0.01 0.01 0.01 0.01 0.00 0.00 0.00 0.00 0.00 0.00 0.00 0.00 0.00 0.00
0.03 0.02 0.02 0.02 0.02 0.01 0.01 0.01 0.01 0.01 0.01 0.01 0.02 0.01 0.01 0.01 0.01 0.01 0.01 0.01 0.01 0.00 0.00 0.00 0.00 0.00 0.01 0.00 0.00 0.00 0.00 0.00 0.00 0.00 0.00 0.00 0.00 0.00
0.02 0.02 0.02 0.01 0.01 0.01 0.01 0.01 0.01 0.00 0.01 0.01 0.01 0.01 0.01 0.01 0.01 0.01 0.01 0.01 0.00 0.00 0.00 0.00 0.00 0.01 0.01 0.00 0.00 0.00 0.00 0.00 0.00 0.00 0.00 0.00 0.00 0.00
0.00 0.01 0.01 0.01 0.01 0.01 0.01 0.01 0.01 0.00 0.01 0.01 0.00 0.01 0.01 0.01 0.01 0.01 0.01 0.00 0.00 0.00 0.00 0.00 0.00 0.00 0.00 0.00 0.00 0.00 0.00 0.00 0.00 0.00 0.00 0.00 0.00 0.00
0.00 0.00 0.00 0.00 0.00 0.01 0.01 0.01 0.01 0.00 0.00 0.00 0.00 0.00 0.00 0.00 0.00 0.00 0.00 0.00 0.00 0.00 0.00 0.00 0.00 0.00 0.00 0.00 0.00 0.00 0.00 0.00 0.00 0.00 0.00 0.00 0.00 0.00
0.00 0.00 0.00 0.00 0.00 0.00 0.00 0.00 0.00 0.00 0.00 0.00 0.00 0.00 0.00 0.00 0.00 0.00 0.00 0.00 0.00 0.00 0.00 0.00 0.00 0.00 0.00 0.00 0.00 0.00 0.00 0.00 0.00 0.00 0.00 0.00 0.00 0.00
0.00 0.00 0.00 0.00 0.00 0.00 0.00 0.00 0.00 0.00 0.00 0.00 0.00 0.00 0.00 0.00 0.00 0.00 0.00 0.00 0.00 0.00 0.00 0.00 0.00 0.00 0.00 0.00 0.00 0.00 0.00 0.00 0.00 0.00 0.00 0.00 0.00 0.00
0.00 0.00 0.00 0.00 0.00 0.00 0.00 0.00 0.00 0.00 0.00 0.00 0.00 0.00 0.00 0.00 0.00 0.00 0.00 0.00 0.00 0.00 0.00 0.00 0.00 0.00 0.00 0.00 0.00 0.00 0.00 0.00 0.00 0.00 0.00 0.00 0.00 0.00
0.00 0.00 0.00 0.00 0.00 0.00 0.00 0.00 0.00 0.00 0.00 0.00 0.00 0.00 0.00 0.00 0.00 0.00 0.00 0.00 0.00 0.00 0.00 0.00 0.00 0.00 0.00 0.00 0.00 0.00 0.00 0.00 0.00 0.00 0.00 0.00 0.00 0.00
0.00 0.00 0.00 0.00 0.00 0.00 0.00 0.00 0.00 0.00 0.00 0.00 0.00 0.00 0.00 0.00 0.00 0.00 0.00 0.00 0.00 0.00 0.00 0.00 0.00 0.00 0.00 0.00 0.00 0.00 0.00 0.00 0.00 0.00 0.00 0.00 0.00 0.00
MSLP
1017.32 1016.95 1016.64 1016.41 1016.32 1016.41 1016.70 1017.19 1017.90 1018.78 1019.80 1020.90 1022.02 1023.10 1024.09 1024.94 1025.63 1026.16 1026.54 1026.80 1026.97 1027.09 1027.19 1027.30 1027.42 1027.57 1027.74 1027.91 1028.07 1028.22 1028.33 1028.41 1028.44 1028.44 1028.40 1028.33 1028.23 1028.09
1017.06 1016.59 1016.17 1015.86 1015.72 1015.77 1016.06 1016.59 1017.36 1018.33 1019.47 1020.69 1021.94 1023.15 1024.24 1025.16 1025.91 1026.46 1026.83 1027.05 1027.17 1027.22 1027.26 1027.31 1027.40 1027.53 1027.69 1027.87 1028.05 1028.22 1028.35 1028.43 1028.46 1028.44 1028.36 1028.25 1028.09 1027.92
1017.00 1016.46 1015.98 1015.63 1015.44 1015.48 1015.77 1016.33 1017.13 1018.16 1019.36 1020.65 1021.97 1023.23 1024.36 1025.32 1026.07 1026.61 1026.95 1027.12 1027.18 1027.18 1027.17 1027.18 1027.24 1027.35 1027.52 1027.71 1027.92 1028.11 1028.25 1028.34 1028.37 1028.32 1028.22 1028.06 1027.87 1027.65
1017.17 1016.63 1016.14 1015.78 1015.59 1015.63 1015.93 1016.49 1017.31 1018.34 1019.54 1020.83 1022.13 1023.37 1024.48 1025.40 1026.11 1026.59 1026.88 1027.00 1027.01 1026.96 1026.91 1026.89 1026.93 1027.04 1027.21 1027.42 1027.65 1027.86 1028.02 1028.12 1028.15 1028.09 1027.96 1027.78 1027.55 1027.31
1017.59 1017.09 1016.65 1016.32 1016.17 1016.23 1016.54 1017.10 1017.88 1018.87 1020.00 1021.21 1022.43 1023.57 1024.58 1025.40 1026.02 1026.43 1026.64 1026.70 1026.66 1026.57 1026.49 1026.46 1026.49 1026.60 1026.78 1027.01 1027.25 1027.48 1027.65 1027.76 1027.79 1027.73 1027.60 1027.40 1027.16 1026.90
1018.20 1017.79 1017.44 1017.20 1017.11 1017.22 1017.53 1018.06 1018.79 1019.68 1020.69 1021.76 1022.82 1023.80 1024.65 1025.34 1025.83 1026.13 1026.27 1026.27 1026.19 1026.08 1025.98 1025.94 1025.97 1026.09 1026.27 1026.50 1026.75 1026.98 1027.16 1027.27 1027.30 1027.25 1027.12 1026.93 1026.70 1026.45
1018.92 1018.63 1018.40 1018.27 1018.27 1018.42 1018.74 1019.23 1019.87 1020.64 1021.48 1022.36 1023.22 1024.01 1024.67 1025.19 1025.55 1025.76 1025.82 1025.78 1025.67 1025.55 1025.45 1025.41 1025.44 1025.54 1025.72 1025.94 1026.17 1026.39 1026.57 1026.68 1026.71 1026.67 1026.55 1026.38 1026.17 1025.94
1019.64 1019.49 1019.40 1019.38 1019.47 1019.67 1019.99 1020.43 1020.97 1021.58 1022.24 1022.92 1023.57 1024.14 1024.63 1024.99 1025.23 1025.35 1025.36 1025.29 1025.18 1025.06 1024.97 1024.93 1024.95 1025.04 1025.19 1025.38 1025.58 1025.76 1025.91 1026.01 1026.04 1026.01 1025.91 1025.76 1025.58 1025.37
1020.30 1020.28 1020.31 1020.41 1020.57 1020.81 1021.12 1021.49 1021.92 1022.38 1022.87 1023.34 1023.79 1024.19 1024.51 1024.75 1024.89 1024.95 1024.94 1024.88 1024.78 1024.68 1024.60 1024.56 1024.57 1024.63 1024.73 1024.87 1025.01 1025.15 1025.26 1025.32 1025.34 1025.30 1025.21 1025.08 1024.92 1024.74
1020.87 1020.95 1021.08 1021.26 1021.48 1021.73 1022.02 1022.32 1022.64 1022.97 1023.29 1023.60 1023.89 1024.14 1024.34 1024.49 1024.59 1024.63 1024.62 1024.58 1024.51 1024.44 1024.38 1024.34 1024.32 1024.34 1024.39 1024.45 1024.52 1024.58 1024.63 1024.64 1024.62 1024.57 1024.47 1024.35 1024.20 1024.03
1021.36 1021.52 1021.72 1021.94 1022.19 1022.43 1022.68 1022.91 1023.13 1023.34 1023.54 1023.72 1023.88 1024.04 1024.17 1024.28 1024.36 1024.41 1024.43 1024.42 1024.39 1024.35 1024.30 1024.25 1024.21 1024.18 1024.15 1024.14 1024.12 1024.10 1024.07 1024.02 1023.94 1023.85 1023.73 1023.59 1023.43 1023.26
1021.86 1022.05 1022.27 1022.51 1022.75 1022.97 1023.16 1023.32 1023.46 1023.57 1023.67 1023.76 1023.85 1023.95 1024.05 1024.14 1024.23 1024.31 1024.37 1024.40 1024.41 1024.38 1024.34 1024.28 1024.20 1024.11 1024.01 1023.91 1023.81 1023.70 1023.58 1023.46 1023.32 1023.17 1023.01 1022.83 1022.64 1022.44
1022.40 1022.60 1022.82 1023.04 1023.24 1023.41 1023.54 1023.63 1023.70 1023.74 1023.77 1023.81 1023.86 1023.93 1024.02 1024.12 1024.23 1024.33 1024.42 1024.48 1024.50 1024.49 1024.44 1024.35 1024.24 1024.09 1023.93 1023.76 1023.57 1023.38 1023.18 1022.98 1022.77 1022.56 1022.33 1022.10 1021.86 1021.61
1023.02 1023.20 1023.38 1023.56 1023.70 1023.81 1023.89 1023.92 1023.93 1023.92 1023.91 1023.93 1023.96 1024.02 1024.11 1024.21 1024.33 1024.44 1024.53 1024.60 1024.62 1024.60 1024.53 1024.42 1024.27 1024.08 1023.87 1023.64 1023.39 1023.13 1022.86 1022.59 1022.31 1022.02 1021.73 1021.43 1021.13 1020.81
1023.68 1023.82 1023.95 1024.06 1024.15 1024.20 1024.22 1024.21 1024.18 1024.15 1024.12 1024.12 1024.15 1024.20 1024.29 1024.39 1024.49 1024.59 1024.66 1024.71 1024.71 1024.66 1024.56 1024.42 1024.24 1024.03 1023.78 1023.51 1023.22 1022.92 1022.60 1022.26 1021.92 1021.57 1021.20 1020.83 1020.46 1020.08
1024.30 1024.38 1024.45 1024.51 1024.54 1024.54 1024.51 1024.48 1024.44 1024.40 1024.38 1024.38 1024.40 1024.45 1024.52 1024.59 1024.66 1024.72 1024.75 1024.75 1024.71 1024.63 1024.50 1024.33 1024.14 1023.90 1023.65 1023.36 1023.05 1022.72 1022.36 1021.98 1021.58 1021.17 1020.74 1020.30 1019.85 1019.41
1024.77 1024.78 1024.80 1024.79 1024.78 1024.75 1024.71 1024.67 1024.64 1024.62 1024.61 1024.62 1024.65 1024.69 1024.73 1024.76 1024.78 1024.78 1024.76 1024.70 1024.60 1024.48 1024.33 1024.14 1023.93 1023.70 1023.44 1023.16 1022.84 1022.49 1022.11 1021.70 1021.26 1020.79 1020.29 1019.79 1019.29 1018.79
1024.98 1024.94 1024.90 1024.86 1024.82 1024.79 1024.76 1024.74 1024.74 1024.75 1024.77 1024.80 1024.82 1024.85 1024.86 1024.84 1024.81 1024.75 1024.65 1024.54 1024.39 1024.23 1024.05 1023.86 1023.65 1023.42 1023.17 1022.89 1022.57 1022.22 1021.81 1021.37 1020.88 1020.36 1019.82 1019.26 1018.70 1018.16
1024.93 1024.84 1024.76 1024.70 1024.66 1024.64 1024.64 1024.67 1024.71 1024.76 1024.82 1024.86 1024.89 1024.90 1024.88 1024.82 1024.73 1024.60 1024.45 1024.28 1024.10 1023.91 1023.72 1023.52 1023.31 1023.09 1022.84 1022.56 1022.23 1021.85 1021.42 1020.93 1020.40 1019.83 1019.23 1018.63 1018.03 1017.46
1024.64 1024.51 1024.42 1024.36 1024.33 1024.35 1024.40 1024.48 1024.57 1024.67 1024.76 1024.82 1024.86 1024.85 1024.79 1024.69 1024.55 1024.38 1024.19 1023.99 1023.78 1023.57 1023.37 1023.17 1022.95 1022.72 1022.46 1022.16 1021.80 1021.38 1020.90 1020.36 1019.77 1019.14 1018.50 1017.86 1017.23 1016.63
1024.23 1024.08 1023.99 1023.95 1023.96 1024.02 1024.13 1024.26 1024.40 1024.53 1024.64 1024.71 1024.74 1024.71 1024.63 1024.50 1024.32 1024.12 1023.90 1023.68 1023.46 1023.24 1023.03 1022.82 1022.59 1022.34 1022.04 1021.69 1021.27 1020.78 1020.23 1019.62 1018.97 1018.29 1017.59 1016.91 1016.26 1015.65
1023.81 1023.68 1023.60 1023.60 1023.65 1023.76 1023.91 1024.08 1024.25 1024.40 1024.52 1024.58 1024.59 1024.54 1024.43 1024.27 1024.07 1023.85 1023.62 1023.39 1023.16 1022.94 1022.72 1022.49 1022.23 1021.93 1021.57 1021.15 1020.65 1020.07 1019.43 1018.74 1018.01 1017.27 1016.54 1015.83 1015.16 1014.55
1023.50 1023.40 1023.36 1023.40 1023.49 1023.64 1023.81 1024.00 1024.18 1024.33 1024.43 1024.47 1024.45 1024.36 1024.23 1024.04 1023.83 1023.60 1023.36 1023.13 1022.90 1022.67 1022.43 1022.16 1021.85 1021.49 1021.05 1020.53 1019.93 1019.26 1018.52 1017.75 1016.95 1016.16 1015.39 1014.67 1014.01 1013.41
Thickness
5648 5648 5648 5649 5649 5649 5649 5648 5644 5639 5633 5629 5627 5624 5623 5622 5621 5620 5618 5616 5614 5612 5610 5607 5604 5601 5597 5594 5591 5586 5583 5580 5576 5573 5570 5566 5563 5560
5639 5639 5640 5642 5642 5643 5643 5642 5641 5637 5629 5624 5620 5616 5614 5612 5609 5608 5606 5604 5603 5601 5598 5596 5593 5590 5587 5584 5580 5577 5574 5571 5567 5563 5560 5557 5554 5551
5631 5632 5632 5633 5635 5636 5636 5635 5633 5631 5624 5616 5611 5607 5605 5602 5599 5598 5596 5595 5592 5590 5588 5586 5583 5580 5577 5574 5571 5568 5565 5562 5558 5555 5552 5549 5546 5544
5622 5623 5624 5625 5626 5628 5628 5627 5626 5624 5620 5610 5603 5599 5596 5593 5591 5588 5587 5585 5583 5580 5578 5576 5573 5571 5568 5566 5563 5560 5557 5554 5551 5548 5545 5543 5540 5538
5613 5614 5615 5616 5618 5619 5619 5618 5617 5615 5611 5605 5597 5591 5587 5584 5582 5580 5578 5576 5575 5572 5570 5568 5565 5563 5561 5559 5556 5554 5551 5548 5546 5543 5540 5538 5536 5534
5603 5604 5606 5607 5609 5610 5610 5608 5607 5604 5601 5596 5590 5584 5581 5577 5576 5574 5571 5570 5569 5567 5565 5562 5560 5557 5556 5553 5551 5549 5547 5545 5542 5540 5537 5535 5533 5532
5594 5595 5596 5597 5599 5600 5601 5600 5598 5596 5592 5588 5584 5579 5576 5573 5572 5570 5569 5567 5564 5563 5562 5560 5558 5556 5553 5551 5548 5546 5544 5542 5540 5538 5535 5533 5532 5530
5586 5587 5587 5588 5588 5589 5589 5589 5589 5588 5586 5584 5580 5576 5572 5570 5568 5568 5566 5565 5562 5560 5561 5559 5558 5557 5555 5552 5548 5545 5543 5541 5539 5537 5535 5533 5531 5530
5578 5580 5581 5580 5582 5581 5579 5578 5578 5577 5577 5578 5576 5573 5569 5567 5565 5564 5562 5562 5561 5559 5558 5558 5557 5556 5554 5552 5547 5544 5542 5540 5539 5537 5535 5533 5532 5531
5569 5571 5573 5573 5574 5575 5574 5572 5571 5569 5569 5570 5568 5566 5564 5562 5561 5562 5560 5558 5557 5557 5556 5557 5557 5556 5556 5552 5548 5546 5544 5542 5540 5538 5537 5535 5533 5532
5561 5562 5565 5565 5563 5566 5568 5567 5564 5561 5559 5559 5559 5558 5557 5556 5557 5559 5559 5560 5558 5557 5555 5556 5556 5557 5557 5555 5552 5548 5546 5544 5542 5541 5539 5537 5536 5533
5554 5554 5554 5556 5556 5558 5562 5561 5560 5558 5557 5555 5553 5553 5553 5553 5553 5555 5558 5558 5558 5556 5555 5555 5556 5557 5557 5558 5556 5553 5550 5549 5547 5545 5543 5541 5538 5535
5551 5550 5547 5547 5550 5552 5555 5556 5554 5555 5556 5555 5554 5554 5553 5552 5553 5553 5554 5556 5557 5557 5556 5555 5556 5557 5557 5557 5558 5557 5555 5554 5551 5549 5547 5544 5541 5537
5547 5546 5542 5542 5544 5547 5548 5547 5549 5552 5555 5555 5555 5554 5554 5554 5553 5552 5551 5552 5552 5553 5552 5553 5555 5554 5555 5556 5557 5558 5557 5555 5554 5553 5551 5548 5544 5542
5539 5537 5538 5539 5541 5543 5543 5545 5548 5553 5554 5553 5553 5553 5553 5552 5551 5551 5551 5550 5551 5552 5553 5551 5553 5554 5554 5555 5556 5557 5557 5557 5556 5554 5552 5551 5549 5547
5537 5535 5536 5539 5541 5541 5543 5546 5549 5551 5552 5552 5552 5552 5552 5552 5554 5555 5555 5555 5556 5557 5555 5553 5552 5552 5553 5555 5556 5557 5557 5557 5556 5555 5554 5552 5550 5549
5537 5540 5543 5544 5545 5546 5547 5548 5549 5550 5550 5551 5552 5553 5554 5555 5555 5555 5555 5557 5558 5559 5560 5559 5558 5556 5555 5554 5556 5557 5557 5557 5557 5555 5552 5552 5552 5551
5537 5543 5544 5546 5547 5548 5549 5549 5550 5551 5552 5553 5554 5555 5556 5557 5558 5558 5559 5559 5560 5561 5562 5562 5562 5561 5561 5563 5559 5558 5558 5557 5557 5555 5552 5552 5553 5552
5540 5544 5546 5547 5548 5550 5551 5552 5552 5552 5553 5554 5555 5556 5557 5558 5559 5560 5561 5562 5562 5563 5563 5563 5562 5561 5560 5561 5563 5557 5556 5555 5554 5554 5553 5552 5552 5552
5545 5547 5547 5548 5550 5551 5553 5554 5554 5555 5555 5556 5557 5558 5559 5560 5561 5562 5563 5562 5562 5563 5564 5565 5564 5563 5560 5559 5560 5560 5557 5556 5554 5553 5552 5552 5551 5550
5549 5550 5551 5552 5553 5553 5554 5555 5556 5557 5557 5558 5559 5559 5561 5562 5563 5564 5565 5562 5561 5564 5565 5566 5566 5560 5559 5560 5560 5563 5563 5558 5554 5550 5549 5549 5550 5550
5551 5552 5554 5555 5555 5557 5558 5559 5560 5560 5560 5562 5563 5563 5564 5565 5565 5566 5567 5567 5568 5569 5569 5569 5568 5566 5565 5564 5564 5565 5565 5562 5559 5555 5551 5548 5545 5545
5555 5556 5557 5559 5560 5561 5563 5564 5564 5565 5565 5566 5567 5567 5567 5567 5567 5568 5569 5570 5570 5570 5570 5570 5570 5569 5568 5567 5565 5565 5565 5563 5563 5561 5559 5554 5547 5543